Blackpool, United Kingdom

10:40 PM BST on July 25, 2017 (GMT +0100)
Blackpool

Weather History for EGNH - March, 2014

Change the Weather History Date:

Monday, March 17, 2014

  Actual Average Record
Temperature  
Mean Temperature 48 °F -  
Max Temperature 50 °F 50 °F 60 °F (2003)
Min Temperature 46 °F 40 °F 34 °F (2016)
Degree Days  
Heating Degree Days 17    
Moisture  
Dew Point 45 °F    
Average Humidity 88    
Maximum Humidity 95    
Minimum Humidity 75    
Precipitation  
Precipitation 0.00 in - - ()
Sea Level Pressure  
Sea Level Pressure 30.10 in    
Wind  
Wind Speed 15 mph ()    
Max Wind Speed 21 mph    
Max Gust Speed -    
Visibility 6.2 miles    
Events      
Averages and records for this station are not official NWS values.
T = Trace of Precipitation, MM = Missing Value Source: Averaged Metar Reports

Daily Weather History Graph

Daily Weather History Graph

Search for Another Location

Airport or City:

Trip Planner

Search our weather history database for the weather conditions in past years. The results will help you decide how hot, cold, wet, or windy it might be!

Date:

Astronomy

Mar. 17, 2014 Rise Set
Actual Time 6:22 AM GMT 6:19 PM GMT
Civil Twilight 5:47 AM GMT 6:54 PM GMT
Nautical Twilight 5:06 AM GMT 7:36 PM GMT
Astronomical Twilight 4:23 AM GMT 8:19 PM GMT
Moon 7:35 PM GMT (3/17) 6:21 AM GMT (3/17)
Length of Visible Light 13h 07m
Length of Day
11h 57m
Waxing Gibbous, 99% of the Moon is Illuminated
Mar 17
Waxing Gibbous
Mar 24
Last Quarter
Mar 30
New
Apr 7
First Quarter
Apr 15
Full

Hourly Weather History & Observations

Time (GMT) Temp. Windchill Dew Point Humidity Pressure Visibility Wind Dir Wind Speed Gust Speed Precip Events Conditions
12:00 AM 47 °F - 46 °F 95%  in - West 18.4 mph - -  
1:00 AM 48 °F - 45 °F 86%  in - West 18.4 mph - -  
2:00 AM 47 °F - 46 °F 92%  in - West 18.4 mph - -  
3:00 AM 47 °F - 45 °F 91%  in - West 19.6 mph - -  
5:00 AM 46 °F - 45 °F 94%  in - West 19.6 mph - -  
6:00 AM 46 °F - 45 °F 94%  in - West 17.3 mph - -  
6:20 AM 46.4 °F 39.8 °F 44.6 °F 93% 30.12 in 6.2 mi WSW 16.1 mph - N/A   Mostly Cloudy
6:50 AM 46.4 °F 39.8 °F 44.6 °F 93% 30.12 in 6.2 mi WSW 16.1 mph - N/A   Mostly Cloudy
7:00 AM 46 °F - 44 °F 92%  in - West 18.4 mph - -  
7:20 AM 46.4 °F 39.8 °F 44.6 °F 93% 30.12 in 6.2 mi WSW 16.1 mph - N/A   Mostly Cloudy
7:50 AM 46.4 °F 40.4 °F 44.6 °F 93% 30.15 in 6.2 mi West 13.8 mph - N/A   Mostly Cloudy
8:00 AM 46 °F - 45 °F 93%  in - West 15.0 mph - -  
8:20 AM 46.4 °F 40.4 °F 44.6 °F 93% 30.15 in 6.2 mi West 13.8 mph - N/A   Scattered Clouds
8:50 AM 46.4 °F 40.1 °F 44.6 °F 93% 30.15 in 6.2 mi West 15.0 mph - N/A   Partly Cloudy
9:00 AM 47 °F - 45 °F 89%  in - West 17.3 mph - -  
9:20 AM 48.2 °F - 46.4 °F 93% 30.15 in 6.2 mi West 12.7 mph - N/A   Partly Cloudy
9:50 AM 48.2 °F - 46.4 °F 93% 30.15 in 6.2 mi West 13.8 mph - N/A   Partly Cloudy
10:00 AM 48 °F - 45 °F 87%  in - West 15.0 mph - -  
10:20 AM 48.2 °F - 46.4 °F 93% 30.15 in 6.2 mi West 12.7 mph - N/A   Partly Cloudy
10:50 AM 50.0 °F - 46.4 °F 87% 30.15 in 6.2 mi WSW 13.8 mph - N/A   Partly Cloudy
11:00 AM 49 °F - 45 °F 81%  in - West 15.0 mph - -  
11:20 AM 50.0 °F - 46.4 °F 87% 30.15 in 6.2 mi WSW 12.7 mph - N/A   Partly Cloudy
11:50 AM 50.0 °F - 46.4 °F 87% 30.12 in 6.2 mi WSW 11.5 mph - N/A   Partly Cloudy
12:00 PM 49 °F - 45 °F 79%  in - WSW 13.8 mph - -  
12:20 PM 51.8 °F - 46.4 °F 82% 30.12 in 6.2 mi WSW 13.8 mph - N/A   Partly Cloudy
12:50 PM 50.0 °F - 46.4 °F 87% 30.12 in 6.2 mi WSW 11.5 mph - N/A   Partly Cloudy
1:00 PM 49 °F - 44 °F 79%  in - WSW 13.8 mph - -  
1:20 PM 48.2 °F - 44.6 °F 87% 30.09 in 6.2 mi WSW 12.7 mph - N/A   Partly Cloudy
1:50 PM 50.0 °F - 44.6 °F 82% 30.09 in 6.2 mi WSW 15.0 mph - N/A   Partly Cloudy
2:00 PM 49 °F - 44 °F 77%  in - West 17.3 mph - -  
2:20 PM 50.0 °F - 44.6 °F 82% 30.09 in 6.2 mi WSW 15.0 mph - N/A   Partly Cloudy
2:50 PM 50.0 °F - 44.6 °F 82% 30.09 in 6.2 mi WSW 15.0 mph - N/A   Partly Cloudy
3:00 PM 49 °F - 44 °F 75%  in - West 16.1 mph - -  
3:20 PM 50.0 °F - 44.6 °F 82% 30.09 in 6.2 mi WSW 15.0 mph - N/A   Partly Cloudy
3:50 PM 48.2 °F - 44.6 °F 87% 30.09 in 6.2 mi WSW 12.7 mph - N/A   Partly Cloudy
4:00 PM 48 °F - 43 °F 77%  in - WSW 13.8 mph - -  
4:20 PM 48.2 °F - 44.6 °F 87% 30.09 in 6.2 mi WSW 13.8 mph - N/A   Scattered Clouds
4:50 PM 48.2 °F - 44.6 °F 87% 30.06 in 6.2 mi SW 12.7 mph - N/A   Scattered Clouds
5:00 PM 47 °F - 44 °F 84%  in - WSW 13.8 mph - -  
5:20 PM 48.2 °F - 44.6 °F 87% 30.06 in 6.2 mi SW 15.0 mph - N/A   Scattered Clouds
5:50 PM 48.2 °F - 44.6 °F 87% 30.06 in 6.2 mi SW 12.7 mph - N/A   Scattered Clouds
6:00 PM 47 °F - 44 °F 86%  in - WSW 13.8 mph - -  
6:20 PM 46.4 °F 40.1 °F 44.6 °F 93% 30.06 in 6.2 mi SW 15.0 mph - N/A   Scattered Clouds
6:50 PM 46.4 °F 40.4 °F 44.6 °F 93% 30.06 in 6.2 mi SW 13.8 mph - N/A   Scattered Clouds
7:00 PM 47 °F - 44 °F 86%  in - WSW 16.1 mph - -  
7:20 PM 46.4 °F 40.4 °F 44.6 °F 93% 30.06 in 6.2 mi SW 13.8 mph - N/A   Mostly Cloudy
7:50 PM 46.4 °F 39.8 °F 44.6 °F 93% 30.04 in 6.2 mi WSW 16.1 mph - N/A   Mostly Cloudy
8:00 PM 47 °F - 44 °F 87%  in - WSW 18.4 mph - -  
8:20 PM 46.4 °F 39.8 °F 44.6 °F 93% 30.04 in 6.2 mi WSW 16.1 mph - N/A   Mostly Cloudy
8:50 PM 46.4 °F 39.5 °F 44.6 °F 93% 30.04 in 6.2 mi SW 17.3 mph - N/A   Mostly Cloudy
9:00 PM 47 °F - 44 °F 86%  in - WSW 20.7 mph - -  
10:00 PM 47 °F - 44 °F 86%  in - WSW 19.6 mph - -  
11:00 PM 47 °F - 44 °F 86%  in - WSW 19.6 mph - -